sat.trackr.live / text

‹ back to catalog

QIANFAN-73

NORAD 63159 · 2025-046A

PAYLOAD ACTIVE UNKNOWN

§ Identity

Operator
Country
PRC
Launch date
2025-03-11
Launch site
WSC
Launch vehicle
Mass (kg)
RCS (m²)

External: N2YO · Heavens-Above · Gunter

§ Orbital elements

Epoch: 2026-05-25T03:17:48.094944Z

Period
106.59 min
Inclination
88.9689°
Eccentricity
0.0015252
Mean motion
13.51014476 rev/d
Perigee alt
1,057.2 km
Apogee alt
1,079.9 km
Semi-major
7,446.7 km
B*
1.0315e-4
RAAN
303.0834°
Arg perigee
19.2727°
Mean anomaly
340.8998°
Rev number
6,947

§ Raw data

QIANFAN-731 63159U 25046A   26145.13736221  .00000079  00000+0  10315-3 0  99922 63159  88.9689 303.0834 0015252  19.2727 340.8998 13.51014476 69477

JSON: /api/v1/satellites/63159 · /tle

For live sub-satellite position, see the globe view (requires WebGL).

§ Visibility from observer

Set your observer location to see the next 7 days of passes ≥ 10°. The values pass through the URL so the page stays shareable.

No JS? Fill the form by hand. The geolocation button needs JavaScript.